STARLINK-37609, 69036

Orbit data source: Space-Track

STARLINK-37609, 69036 is a payload satellite owned by SpaceX/Seattle (US) in SSO that was launched on Wed, 06 May 2026 UTC via an FALCON 9 launch vehicle from the Air Force Western Test Range (AFWTR). Payload-class satellites include a variety of spacecraft equipped with specific instruments for various scientific and technological missions. These include communications satellites like Starlink; space stations such as the ISS; scientific satellites like the Hubble; Earth observation satellites from companies like Planet Labs, Umbra, and HawkEye 360; GPS; miniature CubeSats for education and research; and military/defense satellites.

Loading next visibility...
Identifier
69036, 2026-101M
Orbit
SSO
Country
Flag of USUS
Related business
Manufacturer
SpaceX/Seattle
Mission
Operational spacecraft
Bus & Motor
STARLINK V2MO, Unknown motor
Mass
575 kg wet, ~530 kg dry
Launch date (UTC)
2026-05-06 (1 month ago)
Launch vehicle
FALCON 9
Launch site
Air Force Western Test Range (AFWTR)
Object type
Payload
Rocket body
Debris
Shape & HBR
Unknown shape, 14.5 m
Radar Cross Section
Large (>1 m²)

Expand to show TLE details & history
Last TLE update: 14 hours ago

TLE from 14 hours ago
0 STARLINK-37609
1 69036U 26101M   26168.50904073  .00010134  00000-0  31577-3 0  9990
2 69036  97.2835  23.3740 0002239 108.3805 251.7681 15.33446217  6620
Epoch: 2026-06-17T12:13Z
TLE epoch observation values (Epoch: 2026-06-17T12:13:01.119Z)
Latitude
-0.00003°
Longitude
-65.64636°
Altitude
469.131 km
Speed
7.631 km/s
True Right ascension
01h 33m 29s
True Declination
0° 00' 00"
Sunlit
Object was in daylight at epoch
Visualization orbit readout
Latitude
Unknown
Longitude
Unknown
Altitude
Unknown
Speed
Unknown
Apparent Right ascension
Unknown
Apparent Declination
Unknown
Sunlit
N/A
Visualization observer readout
Local Sidereal Time
13:00:17
Azimuth
Unknown
Elevation
Unknown
Doppler factor
Unknown
Orbital elements
Apogee altitude
464.014 km
Perigee altitude
460.951 km
Semi-major axis
6,840.619 km
Eccentricity
0.00022
Inclination
97.2835°
RAAN
23.374°
Arg. of periapsis
108.3805°
True anomaly
251.74373°
Mean anomaly
251.7681°
Eccentric anomaly
251.75592°
Mean motion
3.83619 °/min
Orbital period
93.84 mins
BSTAR
0.00031577
Loading maneuver chart data...
Computing Atmospheric mass density...
Loading historical data...
Loading historical data...
Loading historical data...
Loading historical data...
Loading historical data...
Loading historical data...
Loading historical data...

Documentation

Showing up to 5 results
|